User: anonymous   Login
Location: Unspecified
(0.0000°N, 0.0000°E)
Time: 22:32:26
(UTC+00:00)
Language:

PCSat - Orbit

View from above orbital plane
View from above orbital plane
View from above satellite
View from above satellite

Ground track
Ground track

The orbit data is extracted from the following two-line orbital elements,

1 26931U 01043C   18175.55623535 -.00000032  00000-0  19698-4 0  9998
2 26931  67.0499 210.3953 0007955 273.5751  86.4440 14.30508748873607
Epoch (UTC): 24 June 2018 13:20:58
Eccentricity: 0.0007955
inclination: 67.0499°
perigee height: 784 km
apogee height: 796 km
right ascension of ascending node: 210.3953°
argument of perigee: 273.5751°
revolutions per day: 14.30508748
mean anomaly at epoch: 86.4440°
orbit number at epoch: 87360

The dashed part of the orbit path shows where the satellite is in the earth's shadow,  

DLR